Simultaneous Nadir Overpasses (SNOs) Predictions

Prediction of SNOs near US between AQUA and NPP Satellite Orbit:

Table of predicted SNOs near US for the next 10.0 days since TLE Epoch: 11/6/2021
Index Date (AQUA) Time (AQUA) AQUA Lat,Lon Date (NPP) Time (NPP) NPP Lat,Lon Distance(km) Time Diff (sec)
1 11/06/2021 06:30:32 46.34, -65.04 11/06/2021 06:31:56 46.79, -67.19 172.15 84
2 11/06/2021 08:08:24 49.91, -88.34 11/06/2021 08:12:22 50.42, -91.01 198.61 238
3 11/06/2021 09:47:17 49.92,-113.06 11/06/2021 09:53:49 50.59,-116.31 242.95 392
4 11/08/2021 19:06:35 49.97, -92.57 11/08/2021 19:02:42 49.60, -94.63 153.50 233
5 11/08/2021 20:45:28 49.97,-117.29 11/08/2021 20:44:10 49.49,-119.95 198.85 78
6 11/11/2021 08:34:46 21.95,-101.43 11/11/2021 08:26:58 22.01,-101.78 35.72 468
7 11/11/2021 10:11:08 31.05,-123.88 11/11/2021 10:05:51 31.20,-124.72 81.80 317
8 11/14/2021 07:19:01 49.92, -75.98 11/14/2021 07:21:49 50.38, -78.37 178.08 168
9 11/14/2021 08:57:54 49.92,-100.70 11/14/2021 09:03:17 50.49,-103.69 222.51 323
